OCN1L LEIB-EDDM

Flight info

Callsign OCN1L
Flight time 1h 52m
Altitude 38000
Route KABRE DCT ELTAN DCT ISTER DCT NIVDA DCT OMEDA DCT RAPUR DCT TORTU DCT ERTEV DCT TAGIP DCT GUNGO DCT IVKAL T102 NINUR T101 BETOS BETOS1B
Aircraft A320/M-SDE2E3FGIJ1LORWXYZ/HB1

Departure

Time 2026-05-05 03:01
Airport Ibiza Airport (LEIB)

Arrival

Time 2026-05-05 04:53
Airport Munich Airport (EDDM)
Time Latitude Longitude Altitude Speed Heading
2026-05-05 02:04 38.87592 1.36992 9 ft 0 kts 332°
2026-05-05 02:52 38.87586 1.36996 9 ft 4 kts 332°
2026-05-05 02:52 38.87562 1.37012 10 ft 3 kts 332°
2026-05-05 02:52 38.87543 1.37023 9 ft 4 kts 358°
2026-05-05 02:52 38.87525 1.37013 10 ft 3 kts 62°
2026-05-05 02:53 38.87516 1.36991 8 ft 0 kts 62°
2026-05-05 02:54 38.87520 1.37001 10 ft 4 kts 62°
2026-05-05 02:55 38.87542 1.37053 9 ft 9 kts 62°
2026-05-05 02:55 38.87580 1.37145 9 ft 14 kts 62°
2026-05-05 02:55 38.87623 1.37251 8 ft 13 kts 62°
2026-05-05 02:55 38.87664 1.37348 8 ft 12 kts 61°
2026-05-05 02:56 38.87695 1.37441 8 ft 11 kts 85°
2026-05-05 02:56 38.87642 1.37516 9 ft 14 kts 152°
2026-05-05 02:56 38.87591 1.37606 9 ft 13 kts 76°
2026-05-05 02:56 38.87630 1.37703 9 ft 12 kts 60°
2026-05-05 02:57 38.87669 1.37788 10 ft 11 kts 60°
2026-05-05 02:57 38.87704 1.37871 11 ft 11 kts 62°
2026-05-05 02:57 38.87749 1.37982 9 ft 14 kts 62°
2026-05-05 02:57 38.87794 1.38091 9 ft 13 kts 62°
2026-05-05 02:58 38.87837 1.38193 10 ft 12 kts 62°
2026-05-05 02:58 38.87875 1.38288 9 ft 12 kts 62°
2026-05-05 02:58 38.87911 1.38375 10 ft 11 kts 62°
2026-05-05 02:58 38.87945 1.38456 9 ft 10 kts 61°
2026-05-05 02:59 38.87981 1.38539 9 ft 11 kts 61°
2026-05-05 02:59 38.88003 1.38625 9 ft 9 kts 112°
2026-05-05 02:59 38.87955 1.38662 10 ft 8 kts 153°
2026-05-05 02:59 38.87897 1.38702 12 ft 9 kts 152°
2026-05-05 03:00 38.87851 1.38682 11 ft 9 kts 244°
2026-05-05 03:00 38.87817 1.38596 12 ft 16 kts 242°
2026-05-05 03:00 38.87726 1.38375 13 ft 47 kts 242°
2026-05-05 03:00 38.87457 1.37732 10 ft 114 kts 242°
2026-05-05 03:01 38.87003 1.36636 103 ft 155 kts 242°
2026-05-05 03:01 38.86444 1.35491 919 ft 150 kts 229°
2026-05-05 03:01 38.85984 1.34808 1344 ft 159 kts 229°
2026-05-05 03:01 38.85183 1.33678 1712 ft 182 kts 227°
2026-05-05 03:02 38.83982 1.32008 2368 ft 200 kts 226°
2026-05-05 03:02 38.83024 1.30660 2998 ft 209 kts 227°
2026-05-05 03:02 38.82038 1.29288 3842 ft 211 kts 227°
2026-05-05 03:02 38.81343 1.28355 4296 ft 218 kts 221°
2026-05-05 03:03 38.79472 1.27348 5203 ft 231 kts 184°
2026-05-05 03:03 38.78353 1.27459 5551 ft 246 kts 171°
2026-05-05 03:03 38.76000 1.28014 6336 ft 270 kts 171°
2026-05-05 03:03 38.74739 1.28306 6918 ft 273 kts 171°
2026-05-05 03:04 38.72865 1.28746 7867 ft 275 kts 173°
2026-05-05 03:04 38.70976 1.29189 8793 ft 278 kts 173°
2026-05-05 03:04 38.69082 1.29632 9693 ft 282 kts 173°
2026-05-05 03:04 38.67130 1.30084 10527 ft 286 kts 174°
2026-05-05 03:05 38.65146 1.30764 10993 ft 312 kts 159°
2026-05-05 03:05 38.63372 1.32569 11251 ft 346 kts 130°
2026-05-05 03:05 38.62377 1.35446 11779 ft 366 kts 102°
2026-05-05 03:05 38.62473 1.38734 12439 ft 378 kts 75°
2026-05-05 03:06 38.63429 1.41890 13128 ft 384 kts 62°
2026-05-05 03:06 38.64776 1.44871 13812 ft 390 kts 55°
2026-05-05 03:06 38.66316 1.47764 14449 ft 395 kts 53°
2026-05-05 03:06 38.67907 1.50656 15084 ft 400 kts 53°
2026-05-05 03:07 38.69457 1.53578 15709 ft 405 kts 55°
2026-05-05 03:07 38.70984 1.56638 16352 ft 410 kts 57°
2026-05-05 03:07 38.72465 1.59787 17003 ft 415 kts 58°
2026-05-05 03:07 38.73919 1.62996 17642 ft 419 kts 59°
2026-05-05 03:08 38.75373 1.66251 18262 ft 424 kts 59°
2026-05-05 03:08 38.76844 1.69547 18802 ft 428 kts 59°
2026-05-05 03:08 38.78338 1.72874 19342 ft 432 kts 59°
2026-05-05 03:08 38.79855 1.76227 19881 ft 436 kts 59°
2026-05-05 03:09 38.81393 1.79600 20416 ft 440 kts 58°
2026-05-05 03:09 38.82950 1.83001 20931 ft 444 kts 58°
2026-05-05 03:09 38.84521 1.86433 21440 ft 448 kts 58°
2026-05-05 03:09 38.86102 1.89898 21954 ft 452 kts 59°
2026-05-05 03:10 38.87695 1.93400 22465 ft 456 kts 59°
2026-05-05 03:10 38.89277 1.96886 22955 ft 459 kts 59°
2026-05-05 03:10 38.90888 2.00447 23444 ft 463 kts 59°
2026-05-05 03:10 38.92511 2.04037 23862 ft 467 kts 59°
2026-05-05 03:11 38.94146 2.07652 24267 ft 469 kts 59°
2026-05-05 03:11 38.95793 2.11295 24694 ft 472 kts 59°
2026-05-05 03:11 38.97445 2.14958 25094 ft 475 kts 59°
2026-05-05 03:11 38.99105 2.18643 25497 ft 478 kts 59°
2026-05-05 03:12 39.00776 2.22353 25891 ft 480 kts 59°
2026-05-05 03:12 39.02452 2.26082 26274 ft 483 kts 59°
2026-05-05 03:12 39.04134 2.29834 26664 ft 485 kts 59°
2026-05-05 03:12 39.05824 2.33601 27051 ft 488 kts 59°
2026-05-05 03:13 39.07528 2.37401 27435 ft 490 kts 59°
2026-05-05 03:13 39.09234 2.41217 27816 ft 493 kts 59°
2026-05-05 03:13 39.10950 2.45053 28211 ft 496 kts 59°
2026-05-05 03:13 39.12681 2.48913 28547 ft 499 kts 59°
2026-05-05 03:14 39.14420 2.52804 28896 ft 502 kts 59°
2026-05-05 03:14 39.16163 2.56720 29244 ft 505 kts 59°
2026-05-05 03:14 39.17910 2.60654 29583 ft 507 kts 59°
2026-05-05 03:14 39.19644 2.64558 29892 ft 509 kts 59°
2026-05-05 03:15 39.21430 2.68587 30181 ft 512 kts 59°
2026-05-05 03:15 39.23168 2.72532 30460 ft 514 kts 60°
2026-05-05 03:15 39.24930 2.76546 30742 ft 515 kts 59°
2026-05-05 03:15 39.26708 2.80577 31018 ft 517 kts 59°
2026-05-05 03:16 39.28494 2.84608 31319 ft 518 kts 59°
2026-05-05 03:16 39.30287 2.88642 31708 ft 517 kts 59°
2026-05-05 03:16 39.32065 2.92666 32150 ft 516 kts 60°
2026-05-05 03:16 39.33836 2.96696 32507 ft 516 kts 60°
2026-05-05 03:17 39.35601 3.00728 32875 ft 515 kts 60°
2026-05-05 03:17 39.37362 3.04756 33256 ft 514 kts 60°
2026-05-05 03:17 39.39119 3.08778 33626 ft 513 kts 60°
2026-05-05 03:17 39.40876 3.12796 34014 ft 512 kts 60°
2026-05-05 03:18 39.42629 3.16808 34364 ft 511 kts 60°
2026-05-05 03:18 39.44376 3.20810 34694 ft 510 kts 60°
2026-05-05 03:18 39.46117 3.24806 35011 ft 509 kts 60°
2026-05-05 03:18 39.47855 3.28798 35320 ft 509 kts 60°
2026-05-05 03:19 39.51314 3.36770 35918 ft 507 kts 59°
2026-05-05 03:19 39.53038 3.40752 36219 ft 507 kts 59°
2026-05-05 03:19 39.54738 3.44680 36509 ft 505 kts 59°
2026-05-05 03:20 39.56456 3.48656 36803 ft 504 kts 59°
2026-05-05 03:20 39.58168 3.52621 37072 ft 504 kts 59°
2026-05-05 03:20 39.59878 3.56587 37347 ft 503 kts 59°
2026-05-05 03:20 39.61582 3.60539 37612 ft 502 kts 59°
2026-05-05 03:21 39.63286 3.64496 37865 ft 502 kts 59°
2026-05-05 03:21 39.64989 3.68457 37984 ft 502 kts 59°
2026-05-05 03:21 39.68358 3.76324 37983 ft 501 kts 59°
2026-05-05 03:22 39.71733 3.84230 37985 ft 500 kts 59°
2026-05-05 03:22 39.75104 3.92125 37975 ft 499 kts 59°
2026-05-05 03:23 39.78468 4.00019 37971 ft 499 kts 59°
2026-05-05 03:23 39.81823 4.07939 37987 ft 500 kts 59°
2026-05-05 03:24 39.85171 4.15859 37983 ft 500 kts 60°
2026-05-05 03:24 39.88520 4.23788 37963 ft 500 kts 59°
2026-05-05 03:25 39.91861 4.31731 37978 ft 500 kts 59°
2026-05-05 03:25 39.95203 4.39691 38016 ft 500 kts 60°
2026-05-05 03:26 39.98543 4.47659 37989 ft 501 kts 60°
2026-05-05 03:26 40.01879 4.55641 37986 ft 501 kts 60°
2026-05-05 03:27 40.05208 4.63637 37974 ft 501 kts 59°
2026-05-05 03:27 40.09229 4.71000 37986 ft 497 kts 47°
2026-05-05 03:28 40.13663 4.77933 37986 ft 497 kts 47°
2026-05-05 03:28 40.18086 4.84886 37994 ft 498 kts 47°
2026-05-05 03:29 40.22478 4.91820 37990 ft 498 kts 47°
2026-05-05 03:29 40.26895 4.98809 37975 ft 498 kts 47°
2026-05-05 03:30 40.31310 5.05805 37975 ft 499 kts 47°
2026-05-05 03:30 40.35731 5.12815 37978 ft 499 kts 47°
2026-05-05 03:31 40.40149 5.19841 38003 ft 499 kts 47°
2026-05-05 03:31 40.44574 5.26882 37990 ft 500 kts 47°
2026-05-05 03:32 40.48972 5.33904 37966 ft 500 kts 47°
2026-05-05 03:32 40.53387 5.40975 37969 ft 500 kts 47°
2026-05-05 03:33 40.57805 5.48060 37978 ft 500 kts 47°
2026-05-05 03:33 40.62217 5.55147 37985 ft 501 kts 47°
2026-05-05 03:34 40.66592 5.62216 37983 ft 501 kts 47°
2026-05-05 03:34 40.70989 5.69332 37991 ft 501 kts 47°
2026-05-05 03:35 40.75391 5.76453 37994 ft 501 kts 47°
2026-05-05 03:35 40.79790 5.83575 38002 ft 501 kts 47°
2026-05-05 03:36 40.84189 5.90730 37985 ft 502 kts 47°
2026-05-05 03:36 40.88586 5.97904 37983 ft 502 kts 47°
2026-05-05 03:37 40.92982 6.05095 37985 ft 503 kts 47°
2026-05-05 03:37 40.97376 6.12291 37996 ft 503 kts 48°
2026-05-05 03:38 41.01731 6.19446 37987 ft 503 kts 48°
2026-05-05 03:38 41.06116 6.26662 37988 ft 503 kts 48°
2026-05-05 03:39 41.10499 6.33892 37985 ft 503 kts 48°
2026-05-05 03:39 41.14871 6.41132 37985 ft 503 kts 48°
2026-05-05 03:40 41.19242 6.48380 37981 ft 503 kts 49°
2026-05-05 03:40 41.23606 6.55631 37991 ft 502 kts 49°
2026-05-05 03:41 41.27990 6.62848 37989 ft 502 kts 47°
2026-05-05 03:41 41.32455 6.69988 37990 ft 501 kts 47°
2026-05-05 03:42 41.36928 6.77111 38025 ft 501 kts 47°
2026-05-05 03:42 41.41364 6.84261 37980 ft 500 kts 48°
2026-05-05 03:43 41.45775 6.91427 37973 ft 500 kts 48°
2026-05-05 03:43 41.50182 6.98601 37980 ft 500 kts 48°
2026-05-05 03:44 41.55028 7.05105 37981 ft 490 kts 29°
2026-05-05 03:44 41.60681 7.10060 37999 ft 489 kts 29°
2026-05-05 03:45 41.66387 7.15022 37993 ft 489 kts 29°
2026-05-05 03:45 41.72085 7.19983 37987 ft 489 kts 29°
2026-05-05 03:46 41.77773 7.24968 37997 ft 489 kts 29°
2026-05-05 03:46 41.83455 7.29972 37991 ft 488 kts 29°
2026-05-05 03:47 41.89129 7.34967 37981 ft 487 kts 29°
2026-05-05 03:47 41.94802 7.39956 37978 ft 487 kts 29°
2026-05-05 03:48 42.00437 7.44930 37988 ft 487 kts 30°
2026-05-05 03:48 42.06093 7.49936 37980 ft 486 kts 30°
2026-05-05 03:49 42.11731 7.54943 37974 ft 485 kts 30°
2026-05-05 03:49 42.17371 7.59969 37975 ft 485 kts 30°
2026-05-05 03:50 42.23008 7.64993 37971 ft 485 kts 30°
2026-05-05 03:50 42.28634 7.70023 37964 ft 485 kts 30°
2026-05-05 03:51 42.34256 7.75052 37966 ft 484 kts 30°
2026-05-05 03:51 42.39875 7.80088 37977 ft 484 kts 31°
2026-05-05 03:52 42.45448 7.85098 37962 ft 484 kts 31°
2026-05-05 03:52 42.51052 7.90156 37960 ft 484 kts 31°
2026-05-05 03:53 42.55744 7.94399 37964 ft 484 kts 31°
2026-05-05 03:53 42.61296 7.99448 37934 ft 484 kts 31°
2026-05-05 03:54 42.66881 8.04560 37943 ft 484 kts 31°
2026-05-05 03:54 42.72471 8.09688 37953 ft 484 kts 31°
2026-05-05 03:55 42.78058 8.14817 37968 ft 484 kts 31°
2026-05-05 03:55 42.83641 8.19951 37965 ft 484 kts 31°
2026-05-05 03:56 42.89221 8.25100 37956 ft 484 kts 31°
2026-05-05 03:56 42.94799 8.30258 37969 ft 484 kts 32°
2026-05-05 03:57 43.00345 8.35392 37947 ft 485 kts 32°
2026-05-05 03:57 43.05927 8.40573 37947 ft 485 kts 32°
2026-05-05 03:58 43.11502 8.45759 37951 ft 485 kts 32°
2026-05-05 03:58 43.17078 8.50963 37968 ft 485 kts 32°
2026-05-05 03:59 43.22657 8.56180 37959 ft 485 kts 32°
2026-05-05 03:59 43.28234 8.61403 37959 ft 485 kts 32°
2026-05-05 04:00 43.33815 8.66635 37966 ft 486 kts 32°
2026-05-05 04:00 43.39398 8.71893 37947 ft 486 kts 32°
2026-05-05 04:01 43.44983 8.77165 37944 ft 487 kts 32°
2026-05-05 04:01 43.50512 8.82457 37940 ft 487 kts 33°
2026-05-05 04:02 43.56001 8.87943 37943 ft 488 kts 34°
2026-05-05 04:02 43.61488 8.93487 37945 ft 488 kts 34°
2026-05-05 04:03 43.67271 8.98338 37944 ft 485 kts 25°
2026-05-05 04:03 43.73210 9.02614 37962 ft 485 kts 25°
2026-05-05 04:04 43.79194 9.06933 37956 ft 485 kts 25°
2026-05-05 04:04 43.85170 9.11267 37941 ft 485 kts 25°
2026-05-05 04:05 43.91136 9.15620 37958 ft 485 kts 25°
2026-05-05 04:05 43.97099 9.19975 37961 ft 484 kts 24°
2026-05-05 04:06 44.03063 9.24339 37964 ft 484 kts 25°
2026-05-05 04:06 44.09024 9.28708 37978 ft 483 kts 25°
2026-05-05 04:07 44.14965 9.33070 37974 ft 483 kts 25°
2026-05-05 04:07 44.20900 9.37436 37974 ft 482 kts 25°
2026-05-05 04:08 44.26791 9.41779 37993 ft 481 kts 25°
2026-05-05 04:08 44.32705 9.46146 37997 ft 481 kts 25°
2026-05-05 04:09 44.38607 9.50518 37995 ft 479 kts 25°
2026-05-05 04:09 44.44482 9.54893 38002 ft 478 kts 25°
2026-05-05 04:10 44.50339 9.59268 38007 ft 477 kts 25°
2026-05-05 04:10 44.56197 9.63636 38005 ft 476 kts 25°
2026-05-05 04:11 44.62044 9.68008 38016 ft 476 kts 25°
2026-05-05 04:11 44.67872 9.72381 38017 ft 474 kts 25°
2026-05-05 04:12 44.73684 9.76752 38012 ft 473 kts 25°
2026-05-05 04:12 44.79489 9.81125 38016 ft 472 kts 26°
2026-05-05 04:13 44.85276 9.85487 38013 ft 471 kts 26°
2026-05-05 04:13 44.91050 9.89850 38005 ft 470 kts 26°
2026-05-05 04:14 44.96805 9.94216 38011 ft 469 kts 26°
2026-05-05 04:14 45.02514 9.98550 38007 ft 468 kts 26°
2026-05-05 04:15 45.08251 10.02922 38006 ft 467 kts 27°
2026-05-05 04:15 45.13966 10.07289 38017 ft 466 kts 27°
2026-05-05 04:16 45.19670 10.11657 38004 ft 466 kts 27°
2026-05-05 04:16 45.25363 10.16040 37998 ft 465 kts 27°
2026-05-05 04:17 45.31059 10.20424 37991 ft 465 kts 27°
2026-05-05 04:17 45.36772 10.24753 37991 ft 465 kts 21°
2026-05-05 04:18 45.42922 10.27411 37977 ft 462 kts 13°
2026-05-05 04:18 45.49123 10.29833 37972 ft 463 kts 13°
2026-05-05 04:19 45.55293 10.32251 37978 ft 463 kts 13°
2026-05-05 04:19 45.61503 10.34697 37985 ft 463 kts 13°
2026-05-05 04:20 45.67715 10.37143 37993 ft 463 kts 13°
2026-05-05 04:20 45.73930 10.39599 38011 ft 463 kts 13°
2026-05-05 04:21 45.80141 10.42066 38016 ft 463 kts 13°
2026-05-05 04:21 45.86349 10.44528 38022 ft 463 kts 13°
2026-05-05 04:22 45.92557 10.46991 38029 ft 463 kts 13°
2026-05-05 04:22 45.98773 10.49472 38022 ft 464 kts 13°
2026-05-05 04:23 46.04984 10.52006 38021 ft 464 kts 14°
2026-05-05 04:23 46.11154 10.54548 38030 ft 464 kts 14°
2026-05-05 04:24 46.17373 10.57107 38028 ft 465 kts 14°
2026-05-05 04:25 46.26705 10.60932 38034 ft 465 kts 14°
2026-05-05 04:25 46.32929 10.63503 38046 ft 465 kts 14°
2026-05-05 04:26 46.39154 10.66075 38049 ft 465 kts 14°
2026-05-05 04:26 46.45378 10.68648 38038 ft 465 kts 14°
2026-05-05 04:27 46.51602 10.71231 38042 ft 465 kts 14°
2026-05-05 04:27 46.57825 10.73826 37982 ft 468 kts 14°
2026-05-05 04:27 46.60985 10.75148 37706 ft 478 kts 14°
2026-05-05 04:28 46.64202 10.76494 37429 ft 482 kts 14°
2026-05-05 04:28 46.67434 10.77848 37172 ft 484 kts 14°
2026-05-05 04:28 46.70679 10.79205 36898 ft 486 kts 14°
2026-05-05 04:28 46.73905 10.80555 36618 ft 477 kts 13°
2026-05-05 04:29 46.77071 10.81881 36356 ft 471 kts 13°
2026-05-05 04:29 46.80210 10.83198 36085 ft 469 kts 13°
2026-05-05 04:29 46.83343 10.84516 35828 ft 468 kts 13°
2026-05-05 04:29 46.86474 10.85833 35574 ft 468 kts 13°
2026-05-05 04:30 46.89607 10.87155 35326 ft 469 kts 13°
2026-05-05 04:30 46.92705 10.88461 35072 ft 469 kts 13°
2026-05-05 04:30 46.95882 10.89801 34805 ft 469 kts 13°
2026-05-05 04:30 46.98978 10.91122 34567 ft 469 kts 13°
2026-05-05 04:31 47.02112 10.92491 34283 ft 470 kts 14°
2026-05-05 04:31 47.05254 10.93886 33235 ft 475 kts 14°
2026-05-05 04:31 47.08431 10.95308 32356 ft 476 kts 14°
2026-05-05 04:31 47.11578 10.96723 31801 ft 470 kts 14°
2026-05-05 04:32 47.14690 10.98117 31148 ft 466 kts 14°
2026-05-05 04:32 47.17778 10.99497 30520 ft 462 kts 14°
2026-05-05 04:32 47.20845 11.00865 29860 ft 458 kts 14°
2026-05-05 04:32 47.23882 11.02212 29231 ft 453 kts 14°
2026-05-05 04:33 47.26869 11.03479 28974 ft 441 kts 13°
2026-05-05 04:33 47.29841 11.04664 28340 ft 442 kts 12°
2026-05-05 04:33 47.32807 11.05797 27717 ft 439 kts 12°
2026-05-05 04:33 47.35753 11.06905 27099 ft 435 kts 12°
2026-05-05 04:34 47.38670 11.08006 26496 ft 431 kts 12°
2026-05-05 04:34 47.41569 11.09114 25901 ft 428 kts 12°
2026-05-05 04:34 47.44435 11.10227 25333 ft 424 kts 13°
2026-05-05 04:34 47.47282 11.11345 24780 ft 422 kts 13°
2026-05-05 04:35 47.50103 11.12460 24228 ft 418 kts 13°
2026-05-05 04:35 47.52906 11.13567 23688 ft 415 kts 13°
2026-05-05 04:35 47.55689 11.14667 23129 ft 412 kts 13°
2026-05-05 04:35 47.58410 11.15744 22625 ft 408 kts 13°
2026-05-05 04:36 47.61148 11.16827 22128 ft 405 kts 13°
2026-05-05 04:36 47.63895 11.17908 21612 ft 402 kts 13°
2026-05-05 04:36 47.66558 11.18950 21107 ft 399 kts 13°
2026-05-05 04:36 47.69232 11.20003 20593 ft 396 kts 14°
2026-05-05 04:37 47.71888 11.21056 20066 ft 394 kts 14°
2026-05-05 04:37 47.74524 11.22104 19537 ft 391 kts 14°
2026-05-05 04:37 47.77149 11.23147 19000 ft 390 kts 14°
2026-05-05 04:37 47.79759 11.24184 18541 ft 386 kts 14°
2026-05-05 04:38 47.82329 11.25208 18213 ft 379 kts 14°
2026-05-05 04:38 47.84867 11.26222 17739 ft 375 kts 14°
2026-05-05 04:38 47.87377 11.27226 17249 ft 373 kts 14°
2026-05-05 04:38 47.89865 11.28219 16625 ft 367 kts 14°
2026-05-05 04:39 47.92337 11.29207 15860 ft 369 kts 14°
2026-05-05 04:39 47.93979 11.29862 15521 ft 368 kts 14°
2026-05-05 04:39 47.97278 11.31181 14878 ft 366 kts 14°
2026-05-05 04:39 47.99736 11.32167 14381 ft 365 kts 14°
2026-05-05 04:40 48.02189 11.33154 13885 ft 365 kts 14°
2026-05-05 04:40 48.04627 11.34141 13547 ft 358 kts 16°
2026-05-05 04:40 48.06171 11.34974 13285 ft 355 kts 24°
2026-05-05 04:40 48.08922 11.37533 12709 ft 350 kts 40°
2026-05-05 04:41 48.10194 11.39078 12390 ft 348 kts 40°
2026-05-05 04:41 48.12072 11.41346 11951 ft 346 kts 39°
2026-05-05 04:41 48.14545 11.44316 11561 ft 344 kts 39°
2026-05-05 04:41 48.16406 11.46554 11305 ft 342 kts 39°
2026-05-05 04:42 48.17657 11.48061 11139 ft 341 kts 39°
2026-05-05 04:42 48.19502 11.50287 10888 ft 340 kts 39°
2026-05-05 04:42 48.21316 11.52554 10636 ft 338 kts 45°
2026-05-05 04:42 48.22779 11.55222 10387 ft 335 kts 58°
2026-05-05 04:43 48.23799 11.58343 10145 ft 333 kts 72°
2026-05-05 04:43 48.24316 11.61698 9911 ft 330 kts 84°
2026-05-05 04:43 48.24575 11.65106 9654 ft 328 kts 84°
2026-05-05 04:43 48.24838 11.68481 9389 ft 324 kts 84°
2026-05-05 04:44 48.25103 11.71835 9125 ft 322 kts 84°
2026-05-05 04:44 48.25366 11.75166 8867 ft 321 kts 84°
2026-05-05 04:44 48.25628 11.78486 8611 ft 320 kts 84°
2026-05-05 04:44 48.25884 11.81793 8357 ft 318 kts 84°
2026-05-05 04:45 48.26135 11.85089 8105 ft 317 kts 84°
2026-05-05 04:45 48.26384 11.88376 7854 ft 316 kts 84°
2026-05-05 04:45 48.26632 11.91647 7608 ft 315 kts 84°
2026-05-05 04:45 48.26878 11.94904 7361 ft 314 kts 84°
2026-05-05 04:46 48.27122 11.98151 7119 ft 312 kts 84°
2026-05-05 04:46 48.27360 12.01324 6878 ft 305 kts 84°
2026-05-05 04:46 48.27592 12.04434 6636 ft 295 kts 85°
2026-05-05 04:46 48.27814 12.07448 6399 ft 286 kts 85°
2026-05-05 04:47 48.28030 12.10375 6138 ft 278 kts 85°
2026-05-05 04:47 48.28345 12.13204 5884 ft 272 kts 71°
2026-05-05 04:47 48.29381 12.15518 5634 ft 267 kts 40°
2026-05-05 04:47 48.30991 12.16765 5384 ft 259 kts 11°
2026-05-05 04:48 48.32747 12.16744 5139 ft 250 kts 342°
2026-05-05 04:48 48.34238 12.15561 5012 ft 241 kts 315°
2026-05-05 04:48 48.35213 12.13570 5007 ft 236 kts 290°
2026-05-05 04:48 48.35735 12.11255 5011 ft 228 kts 285°
2026-05-05 04:49 48.36202 12.09075 5001 ft 211 kts 285°
2026-05-05 04:49 48.36456 12.06988 4940 ft 199 kts 266°
2026-05-05 04:49 48.36326 12.04943 4681 ft 195 kts 261°
2026-05-05 04:49 48.36171 12.02930 4417 ft 193 kts 261°
2026-05-05 04:50 48.36023 12.00959 4161 ft 192 kts 262°
2026-05-05 04:50 48.35872 11.98948 3902 ft 191 kts 262°
2026-05-05 04:50 48.35726 11.96999 3660 ft 189 kts 262°
2026-05-05 04:50 48.35579 11.95040 3411 ft 187 kts 262°
2026-05-05 04:51 48.35438 11.93151 3173 ft 176 kts 263°
2026-05-05 04:51 48.35306 11.91394 2956 ft 163 kts 263°
2026-05-05 04:51 48.35186 11.89801 2755 ft 146 kts 263°
2026-05-05 04:51 48.35076 11.88337 2561 ft 138 kts 263°
2026-05-05 04:52 48.34967 11.86928 2373 ft 134 kts 263°
2026-05-05 04:52 48.34856 11.85546 2157 ft 132 kts 264°
2026-05-05 04:52 48.34761 11.84176 1981 ft 131 kts 264°
2026-05-05 04:52 48.34661 11.82815 1803 ft 131 kts 262°
2026-05-05 04:53 48.34556 11.81455 1645 ft 131 kts 263°
2026-05-05 04:53 48.34453 11.80098 1498 ft 130 kts 262°
2026-05-05 04:53 48.34361 11.78918 1476 ft 91 kts 264°
2026-05-05 04:53 48.34309 11.78224 1485 ft 40 kts 263°
2026-05-05 04:54 48.34340 11.77905 1474 ft 30 kts 292°
2026-05-05 04:54 48.34423 11.77614 1475 ft 29 kts 293°
2026-05-05 04:54 48.34536 11.77434 1481 ft 23 kts 348°
2026-05-05 04:54 48.34633 11.77492 1481 ft 16 kts 74°
2026-05-05 04:55 48.34643 11.77623 1485 ft 12 kts 84°
2026-05-05 04:55 48.34651 11.77740 1480 ft 11 kts 84°
2026-05-05 04:55 48.34659 11.77852 1485 ft 13 kts 83°
2026-05-05 04:55 48.34674 11.78032 1485 ft 21 kts 83°
2026-05-05 04:56 48.34691 11.78260 1485 ft 23 kts 83°
2026-05-05 04:56 48.34711 11.78513 1478 ft 25 kts 83°
2026-05-05 04:56 48.34732 11.78789 1485 ft 28 kts 83°
2026-05-05 04:56 48.34754 11.79075 1483 ft 25 kts 84°
2026-05-05 04:57 48.34774 11.79333 1481 ft 24 kts 83°
2026-05-05 04:57 48.34800 11.79534 1474 ft 18 kts 52°
2026-05-05 04:57 48.34918 11.79547 1486 ft 18 kts 353°
2026-05-05 04:57 48.35034 11.79527 1475 ft 14 kts 353°
2026-05-05 04:58 48.35131 11.79510 1482 ft 14 kts 353°
2026-05-05 04:58 48.35223 11.79494 1485 ft 13 kts 353°
2026-05-05 04:58 48.35294 11.79482 1480 ft 7 kts 353°
2026-05-05 04:58 48.35325 11.79476 1480 ft 1 kts 354°
2026-05-05 04:59 48.35369 11.79469 1480 ft 12 kts 353°
2026-05-05 04:59 48.35457 11.79453 1475 ft 13 kts 353°
2026-05-05 05:00 48.35539 11.79438 1483 ft 9 kts 349°
2026-05-05 05:00 48.35553 11.79376 1483 ft 6 kts 262°
2026-05-05 05:00 48.35548 11.79318 1482 ft 5 kts 263°
2026-05-05 05:00 48.35547 11.79303 1478 ft 0 kts 263°